Stations météo

réclame
Mon MeteoGroup
Terschelling/Hoorn, Pays-Bas (6251): Température de l'air & dewpoint: 04.12.2019 12:00:00 - 10.12.2019 12:00:00 (CET)Terschelling/Hoorn, Pays-Bas (6251): Température de l'air 5cm: 04.12.2019 12:00:00 - 10.12.2019 12:00:00 (CET)Terschelling/Hoorn, Pays-Bas (6251): Vitesse du vent & gusts: 04.12.2019 12:00:00 - 10.12.2019 12:00:00 (CET)Terschelling/Hoorn, Pays-Bas (6251): Direction du vent: 04.12.2019 12:00:00 - 10.12.2019 12:00:00 (CET)Terschelling/Hoorn, Pays-Bas (6251): reduced air pressure: 04.12.2019 12:00:00 - 10.12.2019 12:00:00 (CET)Terschelling/Hoorn, Pays-Bas (6251): visibility: 04.12.2019 12:00:00 - 10.12.2019 12:00:00 (CET)Terschelling/Hoorn, Pays-Bas (6251): Quantités de précipitations: 04.12.2019 12:00:00 - 10.12.2019 12:00:00 (CET)
Date & Time tt [°C] td [°C] tt 5cm [°C] ff [km/h] ff [knt] fx [km/h] fx [knt] dd ppp [hPa] vv [km] rr [mm]
10.12.2019 12:00:00 6,3 3,6 6,0 36 19 47 25 SSW 1019,0 20 0,0
10.12.2019 11:00:00 6,2 3,3 6,2 32 18 40 21 SSW 1020,3 19 0,0
10.12.2019 10:00:00 5,8 3,6 5,5 29 16 36 19 SSW 1020,9 19 0,0
10.12.2019 09:00:00 5,8 3,7 5,3 25 14 32 18 SSW 1021,3 18 0,0
10.12.2019 08:00:00 5,2 2,6 3,8 18 10 22 12 SW 1021,0 19 0,0
10.12.2019 07:00:00 4,4 0,9 3,7 14 8 25 14 SW 1021,6 23 0,0
10.12.2019 06:00:00 3,6 -0,4 2,5 7 4 14 8 W 1021,3 15 0,0
10.12.2019 05:00:00 6,2 -1,4 5,4 18 10 29 16 WNW 1021,3 25 0,0
10.12.2019 04:00:00 6,1 -1,8 4,5 18 10 32 18 NW 1021,2 20 0,0
10.12.2019 03:00:00 5,9 -2,2 4,6 22 12 43 23 NW 1020,7 26 0,0
10.12.2019 02:00:00 6,9 0,0 6,1 22 12 40 21 NW 1020,0 16 0,0
10.12.2019 01:00:00 6,2 -0,8 5,1 22 12 40 21 NNW 1019,0 16 0,0
10.12.2019 00:00:00 6,6 -0,9 5,7 32 18 47 25 NNW 1018,2 23 0,0
09.12.2019 23:00:00 7,0 -0,2 6,1 32 18 54 29 NNW 1017,2 15 0,0
09.12.2019 22:00:00 6,9 -0,7 5,9 36 19 58 31 NNW 1016,1 19 0,0
09.12.2019 21:00:00 6,7 -1,4 5,5 36 19 58 31 NNW 1014,6 18 0,0
09.12.2019 20:00:00 6,9 1,5 5,4 36 19 54 29 NW 1013,0 12 0,4
09.12.2019 19:00:00 6,5 1,0 5,6 36 19 68 37 NNW 1011,5 14 0,0
09.12.2019 18:00:00 6,5 1,2 5,8 50 27 72 39 NNW 1009,7 13 0,0
09.12.2019 17:00:00 7,4 1,7 6,3 40 21 65 35 NNW 1007,4 14 0,0
09.12.2019 16:00:00 7,8 0,8 6,6 40 21 68 37 NNW 1005,0 14 0,0
09.12.2019 15:00:00 8,1 3,4 7,3 40 21 65 35 N 1002,5 12 0,0
09.12.2019 14:00:00 7,0 3,9 6,5 32 18 54 29 N 1000,2 7 0,5
09.12.2019 13:00:00 7,3 4,7 6,6 25 14 54 29 NNW 997,8 8 1,2
09.12.2019 12:00:00 8,3 5,5 7,4 22 12 36 19 NW 995,8 22 0,0
09.12.2019 11:00:00 7,6 4,4 6,8 22 12 36 19 WNW 994,4 21 0,1
09.12.2019 10:00:00 6,8 5,0 6,2 14 8 25 14 W 993,0 16 0,0
09.12.2019 09:00:00 6,1 4,7 4,6 14 8 18 10 W 992,0 17 0,0
09.12.2019 08:00:00 6,4 5,5 5,7 18 10 58 31 SW 991,1 26 2,5
09.12.2019 07:00:00 6,4 5,1 6,2 43 23 58 31 SW 990,0 3,9 0,5
09.12.2019 06:00:00 6,7 5,2 6,4 36 19 47 25 SSW 989,9 13 0,0
09.12.2019 05:00:00 7,5 5,0 6,9 32 18 43 23 SW 989,9 13 0,0
09.12.2019 04:00:00 7,4 4,6 6,6 36 19 54 29 WSW 990,2 12 0,0
09.12.2019 03:00:00 7,5 4,3 6,8 36 19 50 27 WSW 990,6 13 0,0
09.12.2019 02:00:00 6,8 3,4 6,3 36 19 54 29 WSW 990,8 15 0,0
09.12.2019 01:00:00 7,3 3,6 6,6 43 23 54 29 WSW 991,0 15 0,0
09.12.2019 00:00:00 7,4 3,8 6,7 40 21 58 31 WSW 991,2 14 0,0
08.12.2019 23:00:00 7,8 3,5 7,1 43 23 58 31 WSW 991,2 17 0,0
08.12.2019 22:00:00 8,0 3,8 7,4 40 21 61 33 WSW 991,4 18 0,0
08.12.2019 21:00:00 8,3 4,4 7,8 43 23 58 31 WSW 991,7 12 0,0
08.12.2019 20:00:00 8,2 4,4 7,5 36 19 61 33 WSW 992,2 15 0,0
08.12.2019 19:00:00 7,8 4,0 7,5 54 29 76 41 WSW 992,5 13 0,0
08.12.2019 18:00:00 8,8 4,4 8,0 36 19 54 29 WSW 993,0 12 0,0
08.12.2019 17:00:00 8,9 4,3 8,3 40 21 58 31 WSW 993,5 14 0,0
08.12.2019 16:00:00 9,0 5,0 8,1 43 23 65 35 WSW 993,8 14 0,0
08.12.2019 15:00:00 9,3 5,4 8,7 40 21 58 31 WSW 994,0 17 0,0
08.12.2019 14:00:00 9,4 5,4 9,0 43 23 68 37 W 994,1 14 0,0
08.12.2019 13:00:00 10,5 6,8 9,8 40 21 65 35 W 993,9 14 0,0
08.12.2019 12:00:00 10,1 6,8 9,6 47 25 61 33 W 993,8 14 0,0
08.12.2019 11:00:00 9,7 8,5 9,4 50 27 65 35 WSW 993,6 8 0,2
08.12.2019 10:00:00 9,7 9,0 9,3 47 25 72 39 SW 993,4 9 0,1
08.12.2019 09:00:00 8,7 8,1 8,4 58 31 76 41 SW 993,7 3,2 0,5
08.12.2019 08:00:00 8,5 7,6 8,3 58 31 76 41 SW 994,1 3,9 0,1
08.12.2019 07:00:00 8,5 7,4 8,1 58 31 83 45 SW 995,4 5 0,5
08.12.2019 06:00:00 8,4 7,2 8,1 58 31 79 43 SSW 995,7 4,2 0,7
08.12.2019 05:00:00 9,0 6,9 8,7 58 31 79 43 SW 997,3 10 0,0
08.12.2019 04:00:00 9,0 7,2 8,7 58 31 72 39 SSW 998,9 10 0,0
08.12.2019 03:00:00 8,9 7,5 8,6 50 27 65 35 SSW 1000,9 10 0,0
08.12.2019 02:00:00 8,7 7,5 8,5 47 25 61 33 SW 1002,3 9 0,0
08.12.2019 01:00:00 8,6 7,2 8,2 43 23 58 31 SW 1003,8 11 0,0
08.12.2019 00:00:00 8,3 6,5 7,9 36 19 47 25 SSW 1005,1 14 0,0
07.12.2019 23:00:00 8,4 6,2 8,0 36 19 43 23 SW 1006,4 16 0,0
07.12.2019 22:00:00 8,6 5,8 8,0 32 18 40 21 SW 1007,1 23 0,0
07.12.2019 21:00:00 8,5 6,9 8,0 25 14 36 19 SW 1008,4 15 0,0
07.12.2019 20:00:00 8,6 7,1 8,2 25 14 32 18 SW 1009,1 14 0,0
07.12.2019 19:00:00 8,7 7,1 8,4 22 12 36 19 WSW 1009,6 12 0,0
07.12.2019 18:00:00 9,0 6,9 8,6 25 14 36 19 WSW 1010,1 15 0,0
07.12.2019 17:00:00 9,0 6,9 8,6 25 14 36 19 W 1010,0 16 0,0
07.12.2019 16:00:00 9,1 7,2 8,6 25 14 36 19 W 1009,5 15 0,0
07.12.2019 15:00:00 9,4 7,4 9,1 25 14 40 21 W 1009,3 14 0,0
07.12.2019 14:00:00 9,5 7,5 9,2 29 16 40 21 W 1009,1 14 0,0
07.12.2019 13:00:00 9,5 7,5 9,3 25 14 40 21 W 1009,2 13 0,0
07.12.2019 12:00:00 9,3 7,8 9,0 25 14 36 19 W 1009,0 10 0,2
07.12.2019 11:00:00 9,5 7,4 9,2 25 14 36 19 W 1008,9 14 0,0
07.12.2019 10:00:00 9,1 7,3 8,6 25 14 40 21 W 1008,3 12 0,0
07.12.2019 09:00:00 9,2 7,5 8,7 25 14 40 21 W 1007,7 12 0,0
07.12.2019 08:00:00 9,3 7,5 8,9 29 16 43 23 W 1006,8 12 0,0
07.12.2019 07:00:00 9,3 7,5 8,8 29 16 43 23 W 1005,7 12 0,0
07.12.2019 06:00:00 9,4 7,5 8,9 32 18 47 25 W 1004,8 10 0,0
07.12.2019 05:00:00 9,4 7,4 8,9 29 16 43 23 W 1004,2 13 0,0
07.12.2019 04:00:00 9,2 7,5 8,6 29 16 43 23 W 1003,3 13 0,0
07.12.2019 03:00:00 9,5 7,6 9,0 29 16 40 21 W 1002,3 13 0,0
07.12.2019 02:00:00 9,4 7,5 8,7 29 16 47 25 W 1001,3 15 0,0
07.12.2019 01:00:00 9,5 7,7 8,9 29 16 43 23 WNW 1000,4 15 0,0
07.12.2019 00:00:00 9,6 8,3 9,1 32 18 43 23 W 999,3 12 0,0
06.12.2019 23:00:00 9,4 8,5 9,0 29 16 40 21 W 998,3 14 0,4
06.12.2019 22:00:00 9,4 8,5 9,1 25 14 36 19 W 997,9 11 0,1
06.12.2019 21:00:00 9,4 8,7 8,9 25 14 43 23 W 997,3 14 0,4
06.12.2019 20:00:00 9,2 8,9 8,8 32 18 54 29 SW 997,0 4,6 0,4
06.12.2019 19:00:00 8,9 8,5 8,5 40 21 61 33 SSW 997,3 9 0,2
06.12.2019 18:00:00 8,7 8,4 8,5 40 21 54 29 SSW 997,8 9 0,6
06.12.2019 17:00:00 8,4 8,1 8,3 40 21 58 31 SSW 998,0 2,6 0,5
06.12.2019 16:00:00 8,3 8,0 8,2 47 25 58 31 SW 998,3 2,5 0,6
06.12.2019 15:00:00 8,3 7,9 8,2 47 25 61 33 SSW 998,9 2,4 0,1
06.12.2019 14:00:00 8,3 7,8 8,1 47 25 65 35 SSW 999,8 6 0,1
06.12.2019 13:00:00 8,1 7,7 7,9 50 27 65 35 SW 1001,0 3,3 1,8
06.12.2019 12:00:00 8,0 7,7 7,8 47 25 61 33 SSW 1001,7 2,9 1,0
06.12.2019 11:00:00 7,8 7,4 7,6 40 21 54 29 SSW 1003,0 1,9 1,0
06.12.2019 10:00:00 7,7 7,3 7,6 43 23 58 31 SSW 1003,6 2,5 1,3
06.12.2019 09:00:00 7,9 7,6 7,7 43 23 58 31 SSW 1004,0 3,4 0,5
06.12.2019 08:00:00 8,2 7,9 8,0 36 19 47 25 SSW 1004,3 2,2 0,8
06.12.2019 07:00:00 8,4 8,0 8,3 36 19 50 27 SW 1004,8 3,9 0,2
06.12.2019 06:00:00 9,0 8,6 8,8 40 21 58 31 SW 1004,7 2,5 0,3
06.12.2019 05:00:00 9,0 8,5 8,8 43 23 61 33 SW 1005,2 2,7 0,6
06.12.2019 04:00:00 9,3 8,2 9,0 47 25 61 33 SW 1005,1 5 0,0
06.12.2019 03:00:00 8,7 7,8 8,4 40 21 61 33 SW 1005,8 6 0,0
06.12.2019 02:00:00 8,3 7,4 8,0 47 25 65 35 SW 1006,3 4,6 0,0
06.12.2019 01:00:00 8,3 7,3 8,0 50 27 68 37 SW 1007,0 6 0,0
06.12.2019 00:00:00 7,9 7,0 7,6 50 27 65 35 SW 1007,8 5 0,0
05.12.2019 23:00:00 7,2 6,4 7,0 50 27 65 35 SSW 1008,3 4,0 0,0
05.12.2019 22:00:00 6,9 6,2 6,6 50 27 65 35 SSW 1009,4 4,2 0,0
05.12.2019 21:00:00 6,6 5,8 6,4 47 25 65 35 SSW 1010,2 4,2 0,0
05.12.2019 20:00:00 7,1 6,2 6,7 47 25 61 33 SSW 1011,1 6 0,0
05.12.2019 19:00:00 5,9 5,3 5,7 40 21 50 27 SSW 1011,9 3,6 0,0
05.12.2019 18:00:00 6,0 5,4 5,6 32 18 47 25 SSW 1013,0 3,0 0,0
05.12.2019 17:00:00 5,9 5,3 5,6 32 18 40 21 SSW 1013,7 3,0 0,0
05.12.2019 16:00:00 6,1 5,6 5,8 29 16 36 19 SSW 1014,7 3,0 0,0
05.12.2019 15:00:00 6,9 6,2 6,8 25 14 36 19 SSW 1015,2 7 0,0
05.12.2019 14:00:00 6,5 5,7 6,2 29 16 40 21 SSW 1015,8 5 0,0
05.12.2019 13:00:00 5,7 5,0 5,6 25 14 32 18 SSW 1016,8 4,5 0,0
05.12.2019 12:00:00 6,2 5,3 6,2 22 12 32 18 SSW 1017,4 7 0,0
05.12.2019 11:00:00 6,4 5,2 6,2 25 14 32 18 SW 1017,7 8 0,0
05.12.2019 10:00:00 6,0 4,9 5,6 22 12 25 14 SSW 1017,6 9 0,0
05.12.2019 09:00:00 5,1 4,2 4,0 22 12 22 12 SW 1017,7 9 0,0
05.12.2019 08:00:00 4,3 3,8 3,5 14 8 22 12 SW 1017,8 5 0,0
05.12.2019 07:00:00 4,1 3,7 3,4 14 8 18 10 WSW 1018,1 6 0,0
05.12.2019 06:00:00 5,0 4,4 4,3 18 10 25 14 SSW 1018,1 4,6 0,0
05.12.2019 05:00:00 5,6 4,9 5,0 22 12 25 14 SSW 1017,9 5 0,0
05.12.2019 04:00:00 5,3 4,7 4,0 14 8 22 12 SW 1018,2 4,2 0,0
05.12.2019 03:00:00 4,4 3,9 3,1 14 8 22 12 SW 1018,6 3,6 0,0
05.12.2019 02:00:00 4,6 4,0 3,7 18 10 25 14 SW 1019,0 4,6 0,0
05.12.2019 01:00:00 4,6 3,8 3,8 18 10 22 12 SW 1019,2 6 0,0
05.12.2019 00:00:00 4,6 3,9 3,9 18 10 22 12 SSW 1019,3 6 0,0
04.12.2019 23:00:00 4,7 3,8 4,1 18 10 25 14 SSW 1019,6 7 0,0
04.12.2019 22:00:00 4,5 3,8 3,9 14 8 22 12 SSW 1020,0 6 0,0
04.12.2019 21:00:00 5,0 4,2 4,4 18 10 25 14 SSW 1020,3 7 0,0
04.12.2019 20:00:00 5,5 4,8 5,1 14 8 22 12 SSW 1020,4 6 0,0
04.12.2019 19:00:00 5,3 4,5 4,6 18 10 25 14 S 1020,2 6 0,0
04.12.2019 18:00:00 5,2 4,7 4,5 14 8 18 10 S 1020,0 4,2 0,0
04.12.2019 17:00:00 4,1 3,9 3,4 11 6 14 8 SSW 1019,9 3,9 0,0
04.12.2019 16:00:00 7,4 5,2 6,9 11 6 22 12 WSW 1020,2 40 0,0
04.12.2019 15:00:00 7,0 6,3 6,9 18 10 22 12 SSW 1020,5 5 0,0
04.12.2019 14:00:00 7,0 6,3 7,0 18 10 25 14 SW 1020,5 4,8 0,0
04.12.2019 13:00:00 6,9 6,1 7,0 18 10 25 14 SW 1020,9 4,9 0,0
04.12.2019 12:00:00 6,6 5,9 6,6 22 12 29 16 SSW 1021,3 5 0,0

tt = Température de l'air
td = dewpoint
tt 5cm = Température de l'air 5cm
ff = Vitesse du vent
fx = gusts
dd = Direction du vent
ppp = reduced air pressure
vv = visibility
rr = Quantités de précipitations

stations d'obs. à proximité